Miscellaneous Local Product
Issued by NWS Hastings, NE

Home | Current Version | Previous Version | Graphics & Text | Print | Product List | Glossary On
Versions: 1 2 3 4 5 6 7 8 9 10 11 12 13 14 15 16 17 18 19 20 21 22 23 24 25 26 27 28 29 30 31 32 33 34 35 36 37 38 39 40 41 42 43 44 45 46 47 48 49 50
000
AXUS43 KGID 261302
MISGRI

GID CWA HOURLY WEATHER ROUNDUP
NATIONAL WEATHER SERVICE HASTINGS NE
700 AM CST WED NOV 26 2014

NOTE: "FAIR" INDICATES FEW OR NO CLOUDS BELOW 12,000 FEET WITH NO
SIGNIFICANT WEATHER AND/OR OBSTRUCTIONS TO VISIBILITY.

...SOUTH CENTRAL NEBRASKA...

CITY           SKY/WX    TMP DP  RH WIND       PRES   REMARKS
GRAND ISLAND   CLOUDY    32  24  72 NW32G46   30.04R WCI  17
HASTINGS       CLOUDY    34  22  61 N28G33    30.02R WCI  21
KEARNEY        CLOUDY    32  19  59 W23G30    30.07R WCI  19
ORD            CLOUDY    27  21  78 NW29G37   30.06R WCI  11
YORK           MOCLDY    32  25  74 N20G35    29.99R WCI  20
AURORA         MOCLDY    34  25  70 NW28G36   30.01R WCI  20
LEXINGTON      CLOUDY    32  22  65 NW23G33   30.12R WCI  19
HOLDREGE       CLOUDY    34  20  57 NW22G29   30.07R WCI  22
HEBRON         CLOUDY    37  25  61 NW12G22   30.00R WCI  30

...NEBRASKA PANHANDLE...

CITY           SKY/WX    TMP DP  RH WIND       PRES   REMARKS
CHADRON        CLOUDY    40  20  44 NE6       30.20S
ALLIANCE       CLOUDY    25  20  81 N13       30.16S WCI  14
SCOTTSBLUFF    CLOUDY    30  24  78 NW8       30.19R WCI  22
SIDNEY         CLOUDY    28  24  85 NW8       30.17R WCI  20

...WESTERN AND NORTH CENTRAL NEBRASKA...

CITY           SKY/WX    TMP DP  RH WIND       PRES   REMARKS
VALENTINE      CLOUDY    22  19  89 N21G28    30.18R WCI   6
AINSWORTH      CLOUDY    23  20  87 N23G32    30.14R WCI   7
ONEILL         CLOUDY    25  24  96 NW26G37   30.06R FOG     WCI   9
BROKEN BOW     CLOUDY    29  21  72 N28G38    30.08R WCI  14
IMPERIAL       CLOUDY    34  21  59 NW17G23   30.17R WCI  23
NORTH PLATTE   CLOUDY    28  19  69 NW9G21    30.15R WCI  19
MCCOOK         CLOUDY    36  21  54 N24G31    30.13R WCI  24

...EASTERN NEBRASKA...

CITY           SKY/WX    TMP DP  RH WIND       PRES   REMARKS
NORFOLK        CLOUDY    33  30  88 NW23G30   29.96R WCI  21
SO SIOUX CITY  FLURRIES  35  33  92 N24       29.91R WCI  23
TEKAMAH        CLOUDY    38  34  85 NW22      29.89R WCI  27
COLUMBUS       CLOUDY    34  25  69 NW23G31   29.98R WCI  22
ALBION         CLOUDY    30  25  80 NW28G35   29.99R WCI  16
OMAHA EPPLEY   LGT RAIN  39  34  82 NW18G31   29.89R WCI  30
OFFUTT AFB     LGT RAIN  38  34  85 NW21G29   29.87S WCI  28
MILLARD        CLOUDY    39  33  78 NW18G31   29.88R WCI  30
LINCOLN        CLOUDY    38  30  73 NW18G28   29.95R WCI  28
NEBRASKA CITY  CLOUDY    38  31  76 NW18G26   29.89R WCI  28
BEATRICE       MOCLDY    33  29  82 W13       29.95R WCI  24
FALLS CITY     CLOUDY    37  31  78 W15       29.92R WCI  28

...NORTHERN KANSAS...

CITY           SKY/WX    TMP DP  RH WIND       PRES   REMARKS
GOODLAND       MOCLDY    30  27  88 NW21G26   30.16R WCI  17
HILL CITY      MOCLDY    38  25  59 NW14      30.10R WCI  30
NORTON         PTSUNNY   36  19  51 NW23      30.10R WCI  24
PHILLIPSBURG   PTCLDY    39  27  60 NW20G28   30.09R WCI  30
SMITH CENTER   MOCLDY    36  25  64 NW18      30.07R WCI  25
BELOIT         PTCLDY    37  28  70 W9        30.05R WCI  31
HAYS           PTCLDY    39  25  56 NW17G25   30.09R WCI  30
RUSSELL        PTCLDY    35  28  75 W10       30.07R WCI  27
CONCORDIA      CLOUDY    40  25  55 NW15      30.02R WCI  32
SALINA         CLOUDY    43  28  55 NW15      30.04R
TOPEKA         CLOUDY    40  31  70 W9        29.97R WCI  34



USA.gov is the U.S. government's official web portal to all federal, state and local government web resources and services.